Home   Weather   Ajaccio   Past weeks

Flag for France Past Weather in Ajaccio, Corsica, France — Yesterday and Last 2 Weeks

Now
43 °F

Passing clouds.


Feels Like: 40 °F
Forecast: 45 / 54 °F
Wind: 5 mph from Northeast

Location: Ajaccio Airport

Current Time: Jan 24, 2017 at 6:23:03 am

Latest Report: Jan 24, 2017 at 6:00 am


Visibility: N/A

Pressure: 29.89 "Hg

Humidity: 93%

Dew Point: 41 °F

Location of AjaccioLocation

Past Weather in Ajaccio — Graph

°F

Ajaccio Temperature Yesterday

Maximum temperature yesterday: 59 °F (at 1:30 pm)
Minimum temperature yesterday: 46 °F (at 3:00 am)
Average temperature yesterday: 50 °F

High & Low Weather Summary for the Past Weeks

 TemperatureHumidityPressure
High61 °F (Jan 22, 1:00 pm)100% (Jan 9, 11:00 pm)30.27 "Hg (Jan 9, 11:00 pm)
Low30 °F (Jan 16, 7:00 am)35% (Jan 17, 2:30 pm)29.65 "Hg (Jan 10, 3:00 pm)
Average46 °F71%29.95 "Hg
* Reported Jan 9 5:00 am — Jan 24 5:00 am, Ajaccio, Weather by CustomWeather, © 2017

Note: Actual official high and low records may vary slightly from our data, if they occured in-between our weather recording intervals... More about our weather records

Advertising

Ajaccio Weather History for the Previous 24 Hours

Scroll right to see more
 ConditionsComfort  
Time TempWeatherWind HumidityBarometerVisibility
5:00 am
Tue, Jan 24
43 °FMostly cloudy.6 mph93%29.89 "HgN/A
4:30 am45 °FPassing clouds.6 mph87%29.89 "HgN/A
4:00 am45 °FPassing clouds.7 mph93%29.89 "HgN/A
3:30 am45 °FPassing clouds.6 mph93%29.89 "HgN/A
3:00 am45 °FOvercast.6 mph93%29.89 "HgN/A
2:30 am46 °FMostly cloudy.3 mph93%29.89 "HgN/A
2:00 am46 °FPassing clouds.5 mph93%29.92 "HgN/A
1:30 am46 °FLight rain. Partly cloudy.5 mph93%29.92 "HgN/A
1:00 am46 °FPartly cloudy.5 mph93%29.92 "HgN/A
12:30 am46 °FMostly cloudy.5 mph93%29.92 "HgN/A
12:00 am46 °FMostly cloudy.5 mph93%29.92 "HgN/A
11:30 pm
Mon, Jan 23
46 °FMostly cloudy.5 mph93%29.92 "HgN/A
11:00 pm46 °FOvercast.3 mph93%29.92 "HgN/A
10:30 pm46 °FMostly cloudy.3 mph93%29.92 "HgN/A
10:00 pm46 °FMostly cloudy.3 mph93%29.92 "Hg4 mi
9:30 pm46 °FMostly cloudy.3 mph93%29.92 "Hg5 mi
9:00 pm48 °FClear.3 mph94%29.92 "Hg10 mi
8:30 pm48 °FClear.3 mph94%29.89 "Hg10 mi
8:00 pm48 °FClear.2 mph94%29.92 "Hg10 mi
7:30 pm48 °FClear.3 mph94%29.92 "Hg10 mi
7:00 pm50 °FClear.2 mph88%29.92 "Hg10 mi
6:30 pm52 °FPartly cloudy.No wind82%29.89 "HgN/A
6:00 pm52 °FPartly cloudy.6 mph88%29.89 "HgN/A
5:30 pm52 °FPartly cloudy.7 mph88%29.89 "HgN/A
5:00 pm54 °FBroken clouds.10 mph88%29.89 "HgN/A
4:30 pm54 °FBroken clouds.10 mph88%29.89 "HgN/A
4:00 pm55 °FBroken clouds.12 mph82%29.89 "HgN/A
3:30 pm55 °FBroken clouds.10 mph82%29.89 "HgN/A
3:00 pm57 °FBroken clouds.5 mph72%29.89 "HgN/A
2:30 pm55 °FBroken clouds.5 mph77%29.89 "HgN/A
2:00 pm57 °FLight rain. Broken clouds.7 mph77%29.89 "HgN/A
1:30 pm59 °FPartly sunny.6 mph59%29.89 "HgN/A
1:00 pm57 °FBroken clouds.3 mph67%29.92 "HgN/A
12:30 pm55 °FLight rain. Partly sunny.3 mph72%29.92 "HgN/A
12:00 pm54 °FPartly sunny.2 mph77%29.95 "HgN/A
11:30 am52 °FPartly sunny.3 mph82%29.95 "HgN/A
11:00 am52 °FBroken clouds.3 mph82%29.92 "HgN/A
10:30 am50 °FBroken clouds.3 mph88%29.95 "HgN/A
9:30 am48 °FBroken clouds.1 mph94%29.95 "HgN/A
9:00 am46 °FPartly sunny.3 mph93%29.92 "HgN/A
8:30 am46 °FPartly sunny.No wind93%29.92 "HgN/A
8:00 am46 °FPartly sunny.3 mph93%29.95 "HgN/A
7:30 am46 °FLight rain. Partly cloudy.2 mph93%29.95 "HgN/A
7:00 am46 °FPartly cloudy.2 mph87%29.95 "HgN/A
6:30 am46 °FLight rain. Partly cloudy.2 mph93%29.95 "HgN/A
6:00 am46 °FLight rain. Partly cloudy.5 mph93%29.95 "HgN/A
Weather by CustomWeather, © 2017

See weather overviewHow to use our weather pages